Location: Binningen
(47.7924°N, 8.7261°E)
Time: 20:38:05
(UTC+00:00)

Cosmos 1536 - Pass Details

Date: 17 May 2021
Orbit: 539 x 558 km, 82.5° (Epoch: 20 June)

Event Time Altitude Azimuth Distance (km) Brightness Sun altitude
Rises 20:35:59 0° 350° (N) 2,740 7.5 -13.1°
Reaches altitude 10° 20:38:10 10° 351° (N) 1,838 6.5 -13.4°
Maximum altitude 20:42:13 87° 83° (E) 556 2.8 -13.8°
Enters shadow 20:44:51 21° 170° (S) 1,268 4.1 -14.1°
